Location: Aldenham
(51.6667°N, 0.3500°W)
Time: 16:38:46
(UTC+00:00)

Cosmos 1943 Rocket - Pass Details

Date: 18 November 2025
Orbit: 812 x 841 km, 71.0° (Epoch: 13 December)

Event Time Altitude Azimuth Distance (km) Brightness Sun altitude
Rises 17:22:22 0° 192° (SSW) 3,371 5.8 -11.5°
Reaches altitude 10° 17:24:50 10° 188° (S) 2,438 4.9 -11.8°
Maximum altitude 17:30:16 54° 113° (ESE) 1,004 2.3 -12.6°
Enters shadow 17:35:23 12° 38° (NE) 2,324 4.0 -13.4°
